This is the latest recevied weather packets stored in our database for station/object W8XLR-2. If no packets are shown the sender has not sent any weather packets the latest 10 day(s).
| Time | Temp. | Humidity | Pressure | Rain* | Wind** | Luminosity | Snow |
|---|---|---|---|---|---|---|---|
| 1778042864 | 10° C | 96% | 1010.7 hPa | 1.27 mm | - | - | - |
| 1778042810 | 10° C | 96% | 1010.7 hPa | 1.27 mm | - | - | - |
| 1778042209 | 10° C | 96% | 1010.8 hPa | 1.52 mm | - | - | - |
| 1778041647 | 10° C | 96% | 1011 hPa | 2.29 mm | - | - | - |
| 1778041608 | 10° C | 96% | 1011 hPa | 2.29 mm | - | - | - |
| 1778041013 | 10° C | 96% | 1011 hPa | 2.29 mm | - | - | - |
| 1778040412 | 10° C | 96% | 1011.2 hPa | 3.05 mm | - | - | - |
| 1778039809 | 10.56° C | 96% | 1011.4 hPa | 3.56 mm | - | - | - |
| 1778039208 | 10.56° C | 96% | 1011.4 hPa | 3.56 mm | - | - | - |
| 1778038609 | 10.56° C | 95% | 1011.4 hPa | 3.3 mm | - | - | - |
| 1778038110 | 11.11° C | 96% | 1011.1 hPa | 2.54 mm | - | - | - |
| 1778038009 | 11.11° C | 96% | 1011.1 hPa | 2.54 mm | - | - | - |
| 1778037409 | 11.11° C | 96% | 1011.1 hPa | 2.54 mm | - | - | - |
| 1778036809 | 11.67° C | 95% | 1011 hPa | 2.79 mm | - | - | - |
| 1778036208 | 11.67° C | 95% | 1011 hPa | 2.79 mm | - | - | - |
| 1778035608 | 11.67° C | 95% | 1011 hPa | 2.79 mm | - | - | - |
| 1778035012 | 11.67° C | 95% | 1010.9 hPa | 3.3 mm | - | - | - |
| 1778034410 | 12.22° C | 95% | 1011.2 hPa | 2.79 mm | - | - | - |
| 1778033810 | 12.22° C | 95% | 1011.2 hPa | 2.79 mm | - | - | - |
| 1778033212 | 12.22° C | 95% | 1010.9 hPa | 1.78 mm | - | - | - |
| 1778032608 | 12.22° C | 95% | 1010.9 hPa | 1.78 mm | - | - | - |
| 1778032008 | 12.22° C | 95% | 1010.9 hPa | 1.78 mm | - | - | - |
| 1778031410 | 12.78° C | 95% | 1010.9 hPa | 2.29 mm | - | - | - |
| 1778030808 | 12.78° C | 95% | 1010.7 hPa | 4.06 mm | - | - | - |
| 1778030208 | 12.78° C | 95% | 1010.7 hPa | 4.06 mm | - | - | - |
* Rain latest hour (hover to see other rain measurements)
** Current wind speed in m/s (hover to see current wind gust speed)